Theta_e
299 299 299 298 298 297 295 293 293 293 292 291 291 291 291 291 292 292 291 291 291 292 292 291 290 290 291 292 295 296 298 300
299 299 298 298 298 297 295 294 294 292 292 291 290 290 290 290 291 292 292 292 291 291 292 292 290 290 291 291 295 296 296 298
298 298 298 298 298 297 295 294 293 292 291 291 290 289 289 290 290 290 291 292 291 291 291 292 291 290 291 292 293 295 297 300
298 298 298 298 298 297 295 294 293 292 291 290 289 289 289 289 290 291 291 291 292 292 293 292 292 292 292 293 295 296 296 298
298 298 298 298 298 297 295 294 293 292 291 290 289 288 288 289 289 291 291 291 293 294 295 294 293 293 292 292 293 294 296 298
298 298 298 298 297 297 295 294 293 292 292 290 288 288 288 289 289 290 291 291 293 294 295 295 294 293 293 293 294 295 298 299
299 299 298 298 297 297 295 294 292 292 292 291 290 288 288 288 289 289 290 291 292 294 295 295 296 296 296 296 297 298 299 300
299 299 298 297 297 297 295 294 293 293 292 292 291 289 289 288 289 289 289 290 290 292 294 294 296 299 299 300 301 303 302 304
299 298 298 297 296 296 295 294 294 293 293 293 291 290 290 289 289 288 289 289 289 290 291 292 292 295 298 302 302 301 301 302
299 298 298 297 296 297 296 295 294 294 293 293 292 291 292 291 291 290 289 289 289 289 290 291 291 293 295 298 298 298 298 298
298 298 297 297 296 296 296 295 295 294 293 292 293 292 292 293 293 292 291 291 291 291 290 291 293 294 296 297 298 298 296 296
297 298 297 296 296 296 296 295 295 294 291 289 289 289 289 293 294 294 293 293 293 293 293 292 294 295 296 297 297 296 295 296
297 297 297 296 296 296 295 294 291 290 288 289 289 289 288 289 290 291 293 295 295 294 294 294 293 294 295 296 296 296 296 295
297 297 297 296 296 295 296 294 290 289 288 289 288 289 290 290 290 290 291 290 290 290 289 289 290 291 292 294 295 296 296 295
297 297 296 296 295 295 293 292 290 289 289 289 289 289 289 290 290 289 289 288 288 288 287 287 286 285 285 285 285 285 286 284
296 296 297 296 295 295 294 291 290 290 289 289 289 289 290 290 291 290 289 288 287 286 285 285 284 283 283 283 283 284 284 284
296 296 296 296 295 294 295 294 291 290 289 289 288 288 288 289 289 289 290 290 290 290 289 289 287 285 284 284 283 284 283 283
296 296 296 296 295 294 294 295 295 293 291 290 289 288 287 287 287 287 287 287 287 287 288 288 288 288 288 287 286 284 282 282
295 296 296 296 297 294 293 293 294 294 293 292 292 291 289 289 289 288 288 287 287 287 286 286 286 286 287 287 287 287 286 285
295 295 295 295 296 296 292 292 292 293 293 293 292 292 292 292 291 291 291 291 290 290 290 290 289 287 287 287 287 287 287 287
Wind_Speed
20 21 23 27 30 31 32 32 31 31 31 30 30 30 31 32 34 35 37 37 36 38 37 33 34 33 36 42 43 40 42 43
19 19 21 24 28 30 31 31 32 32 33 31 30 30 30 31 32 33 35 35 33 35 36 33 31 28 27 32 32 32 38 42
16 17 19 23 26 28 29 30 31 32 33 31 29 29 29 29 30 30 32 32 31 31 32 32 29 29 31 31 32 36 34 40
13 15 17 21 24 27 28 29 30 32 32 31 29 28 28 29 28 29 29 27 25 25 27 29 30 27 28 30 30 29 32 34
11 13 15 19 22 24 25 27 29 31 32 30 28 27 27 26 25 26 25 23 19 18 21 22 27 26 27 32 32 30 34 36
9 11 14 17 19 22 24 25 27 29 30 30 28 25 24 24 23 21 21 18 15 11 13 19 22 22 23 25 30 33 31 36
8 10 12 15 18 21 22 24 25 25 28 29 29 27 24 22 20 17 16 15 12 9 7 5 12 22 20 20 23 26 29 30
7 8 10 12 14 17 19 20 22 23 26 27 27 26 24 22 19 18 18 18 16 12 9 8 6 3 13 15 16 17 21 27
5 5 7 10 11 13 15 17 19 21 24 25 26 26 25 24 21 19 20 19 21 20 17 16 15 7 4 9 10 16 21 23
5 4 6 7 8 9 11 13 15 19 22 24 25 26 28 28 28 26 26 24 23 24 23 21 18 10 7 10 15 19 19 19
7 6 5 6 6 6 8 9 12 17 20 21 23 25 26 28 30 32 32 33 31 29 29 26 22 16 21 24 30 31 30 27
9 8 6 4 5 5 5 6 10 13 15 16 19 20 23 24 27 30 33 35 37 37 38 37 33 29 28 28 31 32 32 31
12 10 9 6 4 4 1 3 6 9 10 12 15 16 18 20 23 25 28 31 34 36 37 38 37 34 32 31 32 30 33 33
15 13 13 10 6 5 3 2 2 5 6 8 10 12 14 16 19 21 22 25 27 28 30 31 32 31 30 28 26 26 29 28
17 18 17 14 10 8 7 6 4 2 2 3 6 9 12 14 16 17 20 21 23 24 24 24 25 25 23 23 22 22 23 23
21 21 19 18 15 11 10 9 8 6 3 1 2 4 6 8 10 12 14 17 18 19 18 18 21 21 19 18 18 18 18 17
25 24 22 22 20 17 13 12 12 9 6 3 2 1 1 3 5 7 8 10 10 11 12 13 15 14 13 13 13 13 14 12
26 24 23 25 24 22 19 16 14 13 10 8 6 5 3 2 2 4 4 6 7 9 10 9 9 9 10 10 9 8 9 8
23 25 26 27 27 24 23 21 18 15 13 12 11 9 7 5 4 3 3 3 4 5 5 6 7 7 7 6 5 5 3 3
24 25 28 30 29 27 27 25 22 19 15 13 13 12 11 9 8 7 6 5 5 5 5 5 5 4 4 3 4 4 4 3
Wind_Direction
319 326 335 339 337 341 341 338 336 333 329 326 321 317 314 309 304 302 299 292 287 281 278 276 265 257 246 239 234 234 227 229
312 326 333 340 343 347 345 344 342 339 334 329 327 324 319 314 310 305 303 299 288 275 272 271 260 250 245 237 235 230 237 233
308 326 338 345 347 350 347 348 348 344 338 332 332 331 325 322 318 314 308 305 294 275 265 263 253 245 243 241 242 242 231 226
306 327 343 348 350 351 349 349 350 349 342 339 337 335 333 331 330 325 318 313 302 282 266 256 250 241 239 235 234 233 232 227
306 334 346 349 353 354 353 352 353 355 350 346 345 342 341 336 334 331 326 320 311 290 267 259 251 246 237 235 235 232 234 221
310 335 344 350 357 359 358 358 359 1 360 358 354 351 347 344 344 343 340 333 327 311 276 254 244 238 235 227 227 230 229 213
310 330 345 351 0 4 4 6 4 9 8 5 4 2 360 358 358 4 5 1 1 16 7 325 251 236 231 231 230 230 223 219
292 322 345 350 1 6 11 14 10 15 14 11 13 14 13 12 11 22 24 28 33 42 56 51 59 183 203 203 208 210 209 216
270 314 339 341 358 9 15 20 20 25 29 22 23 28 30 32 30 39 42 42 45 47 49 62 57 31 40 171 188 206 207 211
255 293 317 332 350 8 16 24 28 32 38 37 34 37 40 42 46 49 52 50 54 59 59 60 69 76 109 149 156 153 145 151
247 263 291 319 334 357 14 23 36 41 38 41 43 45 47 51 54 57 61 63 58 64 69 74 81 100 120 126 127 123 120 121
247 253 268 291 314 330 10 32 44 49 47 43 43 46 49 49 54 60 64 64 67 67 69 73 78 83 92 101 105 105 108 107
244 244 249 254 270 289 329 57 55 51 44 47 48 48 53 55 58 58 62 64 68 71 72 75 78 76 79 85 93 102 103 101
246 244 243 244 251 255 238 200 86 70 58 58 56 54 51 51 56 59 59 64 67 70 74 74 72 77 79 80 83 89 95 96
245 244 240 239 235 240 238 233 221 160 95 65 59 54 49 48 48 52 61 61 65 65 65 72 77 77 78 83 86 89 92 101
248 246 238 235 230 229 235 239 241 233 206 219 71 68 56 48 45 48 52 55 57 62 64 71 76 78 84 88 91 94 96 103
246 243 234 233 232 225 228 236 243 247 246 242 262 286 9 16 37 50 44 47 59 67 68 69 70 70 68 71 80 87 95 102
247 244 237 232 235 228 227 229 231 239 243 250 253 259 272 299 346 3 18 30 29 30 30 42 55 67 80 83 80 83 93 109
252 241 234 231 233 231 230 231 231 230 232 237 243 248 252 259 271 285 299 319 334 342 350 2 2 6 13 25 37 54 79 98
251 241 235 232 230 227 230 232 233 234 232 233 241 248 256 261 266 274 284 299 308 308 304 299 288 275 272 267 262 257 258 256